Weather History for KJMR - January, 2013

Change the Weather History Date:

Friday, January 4, 2013

  Actual Average Record
Temperature  
Mean Temperature 18 °F -  
Max Temperature 32 °F 18 °F 39 °F (2001)
Min Temperature 5 °F -4 °F -30 °F (1988)
Degree Days  
Heating Degree Days 46    
Moisture  
Dew Point 10 °F    
Average Humidity 77    
Maximum Humidity 92    
Minimum Humidity 55    
Precipitation  
Precipitation 0.00 in - - ()
Sea Level Pressure  
Sea Level Pressure 30.04 in    
Wind  
Wind Speed 4 mph (SW)    
Max Wind Speed 9 mph    
Max Gust Speed -    
Visibility 10 miles    
Events      
Averages and records for this station are not official NWS values.
T = Trace of Precipitation, MM = Missing Value Source: NWS Daily Summary

Daily Weather History Graph

Daily Weather History Graph

Search for Another Location

Airport or City:

Trip Planner

Search our weather history database for the weather conditions in past years. The results will help you decide how hot, cold, wet, or windy it might be!

Date:

Astronomy

Jan. 04, 2013 Rise Set
Actual Time 7:54 AM CST 4:42 PM CST
Civil Twilight 7:20 AM CST 5:16 PM CST
Nautical Twilight 6:42 AM CST 5:54 PM CST
Astronomical Twilight 6:06 AM CST 6:30 PM CST
Moon No Moon Rise 11:12 AM CST (1/4)
Length of Visible Light 9h 56m
Length of Day
8h 47m
Waning Gibbous, 55% of the Moon is Illuminated
Jan 4
Waning Gibbous
Jan 4
Last Quarter
Jan 11
New
Jan 18
First Quarter
Jan 26
Full

Hourly Weather History & Observations

Time (CST) Temp. Windchill Dew Point Humidity Pressure Visibility Wind Dir Wind Speed Gust Speed Precip Events Conditions
12:01 AM 12.2 °F 1.7 °F 8.6 °F 85% 29.99 in 10.0 mi SW 6.9 mph - N/A   Clear
12:22 AM 12.2 °F -0.2 °F 8.6 °F 85% 29.98 in 10.0 mi SW 9.2 mph - N/A   Clear
12:42 AM 12.2 °F 1.7 °F 8.6 °F 85% 29.97 in 10.0 mi WSW 6.9 mph - N/A   Clear
1:01 AM 12.2 °F 1.7 °F 8.6 °F 85% 29.97 in 10.0 mi WSW 6.9 mph - N/A   Clear
1:22 AM 14.0 °F 5.1 °F 10.4 °F 86% 29.97 in 10.0 mi WSW 5.8 mph - N/A   Clear
1:41 AM 14.0 °F 5.1 °F 10.4 °F 86% 29.96 in 10.0 mi WSW 5.8 mph - N/A   Clear
2:02 AM 14.0 °F 6.5 °F 10.4 °F 86% 29.96 in 10.0 mi WSW 4.6 mph - N/A   Clear
2:41 AM 14.0 °F 5.1 °F 10.4 °F 86% 29.97 in 10.0 mi WSW 5.8 mph - N/A   Clear
3:02 AM 14.0 °F 6.5 °F 10.4 °F 86% 29.97 in 10.0 mi SW 4.6 mph - N/A   Clear
3:21 AM 12.2 °F 6.1 °F 8.6 °F 85% 29.97 in 10.0 mi SW 3.5 mph - N/A   Clear
3:41 AM 12.2 °F 6.1 °F 8.6 °F 85% 29.97 in 10.0 mi SW 3.5 mph - N/A   Clear
4:02 AM 12.2 °F 6.1 °F 8.6 °F 85% 29.97 in 10.0 mi SW 3.5 mph - N/A   Clear
4:21 AM 12.2 °F - 8.6 °F 85% 29.97 in 10.0 mi Calm Calm - N/A   Clear
4:42 AM 12.2 °F 6.1 °F 8.6 °F 85% 29.97 in 10.0 mi SSW 3.5 mph - N/A   Clear
5:01 AM 12.2 °F 2.9 °F 8.6 °F 85% 29.96 in 10.0 mi SSW 5.8 mph - N/A   Clear
5:22 AM 12.2 °F 4.3 °F 8.6 °F 85% 29.96 in 10.0 mi SSW 4.6 mph - N/A   Clear
5:41 AM 12.2 °F 6.1 °F 8.6 °F 85% 29.96 in 10.0 mi WSW 3.5 mph - N/A   Clear
6:22 AM 12.2 °F - 8.6 °F 85% 29.97 in 10.0 mi Calm Calm - N/A   Clear
6:41 AM 12.2 °F - 8.6 °F 85% 29.97 in 10.0 mi Calm Calm - N/A   Clear
7:21 AM 8.6 °F - 5.0 °F 85% 29.98 in 10.0 mi Calm Calm - N/A   Clear
7:42 AM 6.8 °F - 3.2 °F 85% 29.98 in 10.0 mi Calm Calm - N/A   Clear
8:01 AM 5.0 °F - 3.2 °F 92% 29.99 in 10.0 mi Calm Calm - N/A   Clear
8:21 AM 6.8 °F - 3.2 °F 85% 30.00 in 10.0 mi Calm Calm - N/A   Clear
8:41 AM 6.8 °F - 3.2 °F 85% 30.01 in 10.0 mi Calm Calm - N/A   Clear
9:01 AM 8.6 °F 2.0 °F 5.0 °F 85% 30.01 in 10.0 mi WSW 3.5 mph - N/A   Clear
9:22 AM 14.0 °F 8.2 °F 10.4 °F 86% 30.02 in 10.0 mi WSW 3.5 mph - N/A   Clear
9:41 AM 17.6 °F 12.3 °F 12.2 °F 79% 30.02 in 10.0 mi WSW 3.5 mph - N/A   Clear
10:02 AM 19.4 °F 14.3 °F 12.2 °F 74% 30.03 in 10.0 mi WSW 3.5 mph - N/A   Clear
10:21 AM 19.4 °F 12.8 °F 12.2 °F 74% 30.04 in 10.0 mi WSW 4.6 mph - N/A   Clear
10:41 AM 21.2 °F 16.4 °F 12.2 °F 68% 30.04 in 10.0 mi WSW 3.5 mph - N/A   Clear
11:02 AM 23.0 °F 18.4 °F 14.0 °F 68% 30.04 in 10.0 mi SW 3.5 mph - N/A   Clear
11:21 AM 24.8 °F 20.5 °F 14.0 °F 64% 30.05 in 10.0 mi WSW 3.5 mph - N/A   Clear
11:42 AM 26.6 °F - 17.6 °F 69% 30.04 in 10.0 mi Calm Calm - N/A   Clear
12:01 PM 26.6 °F 21.2 °F 15.8 °F 64% 30.05 in 10.0 mi SSW 4.6 mph - N/A   Clear
12:21 PM 26.6 °F 21.2 °F 15.8 °F 64% 30.05 in 10.0 mi South 4.6 mph - N/A   Clear
12:42 PM 28.4 °F 24.6 °F 15.8 °F 59% 30.04 in 10.0 mi South 3.5 mph - N/A   Clear
1:01 PM 30.2 °F 26.7 °F 17.6 °F 60% 30.04 in 10.0 mi South 3.5 mph - N/A   Clear
1:22 PM 30.2 °F 25.4 °F 17.6 °F 60% 30.04 in 10.0 mi South 4.6 mph - N/A   Clear
1:41 PM 30.2 °F 24.3 °F 17.6 °F 60% 30.04 in 10.0 mi South 5.8 mph - N/A   Clear
2:02 PM 30.2 °F 25.4 °F 17.6 °F 60% 30.04 in 10.0 mi South 4.6 mph - N/A   Clear
2:22 PM 32.0 °F 27.5 °F 17.6 °F 55% 30.04 in 10.0 mi South 4.6 mph - N/A   Clear
2:41 PM 30.2 °F 23.4 °F 17.6 °F 60% 30.04 in 10.0 mi SSW 6.9 mph - N/A   Clear
3:02 PM 30.2 °F 24.3 °F 17.6 °F 60% 30.05 in 10.0 mi SSW 5.8 mph - N/A   Clear
3:21 PM 28.4 °F 22.2 °F 17.6 °F 64% 30.06 in 10.0 mi SW 5.8 mph - N/A   Clear
3:41 PM 28.4 °F 22.2 °F 15.8 °F 59% 30.07 in 10.0 mi SW 5.8 mph - N/A   Clear
4:01 PM 26.6 °F 21.2 °F 15.8 °F 64% 30.07 in 10.0 mi SW 4.6 mph - N/A   Clear
4:21 PM 26.6 °F 22.6 °F 15.8 °F 64% 30.08 in 10.0 mi SW 3.5 mph - N/A   Clear
4:42 PM 26.6 °F 22.6 °F 15.8 °F 64% 30.08 in 10.0 mi SW 3.5 mph - N/A   Clear
5:01 PM 24.8 °F - 15.8 °F 69% 30.09 in 10.0 mi Calm Calm - N/A   Clear
5:41 PM 23.0 °F 18.4 °F 14.0 °F 68% 30.10 in 10.0 mi SW 3.5 mph - N/A   Clear
6:01 PM 21.2 °F 16.4 °F 14.0 °F 74% 30.10 in 10.0 mi SW 3.5 mph - N/A   Clear
6:21 PM 19.4 °F - 12.2 °F 74% 30.10 in 10.0 mi Calm Calm - N/A   Clear
6:41 PM 17.6 °F - 12.2 °F 79% 30.10 in 10.0 mi Calm Calm - N/A   Clear
7:02 PM 14.0 °F - 10.4 °F 86% 30.10 in 10.0 mi Calm Calm - N/A   Clear
7:21 PM 14.0 °F - 10.4 °F 86% 30.10 in 10.0 mi Calm Calm - N/A   Clear
7:42 PM 12.2 °F - 8.6 °F 85% 30.09 in 10.0 mi Calm Calm - N/A   Clear
8:02 PM 12.2 °F - 8.6 °F 85% 30.09 in 10.0 mi Calm Calm - N/A   Clear
8:21 PM 12.2 °F - 8.6 °F 85% 30.09 in 10.0 mi Calm Calm - N/A   Clear
8:42 PM 10.4 °F - 5.0 °F 79% 30.09 in 10.0 mi Calm Calm - N/A   Clear
9:01 PM 8.6 °F - 5.0 °F 85% 30.09 in 10.0 mi Calm Calm - N/A   Clear
9:21 PM 8.6 °F - 3.2 °F 79% 30.09 in 10.0 mi Calm Calm - N/A   Clear
9:41 PM 8.6 °F - 3.2 °F 79% 30.10 in 10.0 mi Calm Calm - N/A   Clear
10:01 PM 6.8 °F - 3.2 °F 85% 30.10 in 10.0 mi Calm Calm - N/A   Clear
10:21 PM 6.8 °F - 3.2 °F 85% 30.10 in 10.0 mi Calm Calm - N/A   Clear
10:41 PM 6.8 °F - 3.2 °F 85% 30.10 in 10.0 mi Calm Calm - N/A   Clear
11:02 PM 6.8 °F - 3.2 °F 85% 30.10 in 10.0 mi Calm Calm - N/A   Clear
11:21 PM 5.0 °F - 1.4 °F 85% 30.10 in 10.0 mi Calm Calm - N/A   Clear
11:41 PM 6.8 °F - 3.2 °F 85% 30.10 in 10.0 mi Calm Calm - N/A   Clear